GW1243 Weather Reports


time (UTC)temp
C
wind
direction
speed
KPH
gust
KPH
rain 1hr
cm
rain 24hr
cm
rain mn
cm
humidity
%
barometer
mb
20260510201535 5 0 0.0 8.0 0.00 0.00 0.00 94 1032.0
20260510200034 5 136 3.2 6.4 0.00 0.00 0.00 94 1031.8
20260510194531 5 139 1.6 6.4 0.00 0.00 0.00 94 1031.6
20260510193030 6 138 3.2 6.4 0.00 0.00 0.00 94 1031.4
20260510191536 6 135 3.2 8.0 0.00 0.00 0.00 94 1031.3
20260510190041 6 139 3.2 11.3 0.00 0.00 0.00 94 1031.3
20260510184539 6 131 3.2 8.0 0.00 0.00 0.00 94 1031.2
20260510183037 6 122 3.2 8.0 0.00 0.00 0.00 94 1031.2
20260510181530 6 126 3.2 11.3 0.00 0.00 0.00 94 1031.1
20260510180035 6 123 6.4 14.5 0.00 0.00 0.00 93 1030.9
20260510174535 6 124 4.8 11.3 0.00 0.00 0.00 93 1030.9
20260510173039 6 116 4.8 12.9 0.00 0.00 0.00 93 1030.8
20260510171533 6 129 6.4 12.9 0.00 0.00 0.00 93 1030.9
20260510170037 6 115 4.8 12.9 0.00 0.00 0.00 93 1030.9
20260510164539 6 117 4.8 11.3 0.00 0.00 0.00 93 1030.9
20260510163035 6 121 3.2 12.9 0.00 0.00 0.00 93 1030.9
20260510161536 6 128 3.2 9.7 0.00 0.00 0.00 93 1031.1
20260510160036 6 123 3.2 9.7 0.00 0.00 0.00 93 1031.3
20260510154539 6 136 4.8 8.0 0.00 0.00 0.00 93 1031.3
20260510153036 6 138 3.2 8.0 0.00 0.00 0.00 93 1031.2
20260510151538 6 136 4.8 11.3 0.00 0.00 0.00 93 1031.0
20260510150042 6 138 4.8 8.0 0.00 0.00 0.00 93 1031.2
20260510144556 6 126 3.2 11.3 0.00 0.00 0.00 93 1031.2
20260510143032 6 117 4.8 11.3 0.00 0.00 0.00 92 1031.1
20260510141531 6 124 3.2 11.3 0.00 0.00 0.00 92 1031.3
20260510140038 6 121 4.8 11.3 0.00 0.00 0.00 92 1031.4
20260510134550 6 118 4.8 9.7 0.00 0.00 0.00 92 1031.3
20260510133033 6 121 3.2 11.3 0.00 0.00 0.00 92 1031.5
20260510131530 6 124 3.2 9.7 0.00 0.00 0.00 92 1031.6
20260510130034 6 144 4.8 8.0 0.00 0.00 0.00 92 1031.6
20260510124542 6 130 4.8 11.3 0.00 0.00 0.00 92 1031.8
20260510123036 6 124 3.2 9.7 0.00 0.00 0.00 92 1031.8
20260510121533 6 125 3.2 11.3 0.00 0.00 0.00 91 1031.8
20260510120040 6 142 4.8 11.3 0.00 0.00 0.00 91 1031.8
20260510114532 7 128 3.2 12.9 0.00 0.00 0.00 91 1031.7
20260510113034 7 140 4.8 12.9 0.00 0.00 0.00 91 1031.6
20260510111551 7 148 4.8 11.3 0.00 0.00 0.00 90 1031.7
20260510110034 7 144 4.8 11.3 0.00 0.00 0.00 90 1031.5
20260510104540 7 110 3.2 11.3 0.00 0.00 0.00 90 1031.5
20260510103038 7 130 3.2 12.9 0.00 0.00 0.00 89 1031.6
20260510101539 7 112 4.8 12.9 0.00 0.00 0.00 89 1031.4
20260510100035 7 143 4.8 14.5 0.00 0.00 0.00 89 1031.4
20260510094539 8 153 4.8 16.1 0.00 0.00 0.00 88 1031.4
20260510093036 8 146 6.4 12.9 0.00 0.00 0.00 88 1031.1
20260510091535 8 142 4.8 12.9 0.00 0.00 0.00 87 1031.1
20260510090036 8 146 4.8 12.9 0.00 0.00 0.00 86 1030.7
20260510084536 8 156 6.4 14.5 0.00 0.00 0.00 86 1030.7
20260510083037 9 145 9.7 16.1 0.00 0.00 0.00 85 1030.6
20260510081530 9 155 8.0 14.5 0.00 0.00 0.00 84 1030.4
20260510080036 10 149 8.0 16.1 0.00 0.00 0.00 83 1030.2
20260510074541 10 162 8.0 17.7 0.00 0.00 0.00 81 1030.1
20260510073037 11 163 9.7 16.1 0.00 0.00 0.00 80 1030.2
20260510071536 11 137 8.0 17.7 0.00 0.00 0.00 78 1030.2
20260510070034 12 153 11.3 19.3 0.00 0.00 0.00 76 1030.0
20260510064538 12 167 8.0 17.7 0.00 0.00 0.00 75 1030.1
20260510063037 13 159 8.0 17.7 0.00 0.00 0.00 73 1029.9
20260510061538 13 134 8.0 22.5 0.00 0.00 0.00 72 1029.9
20260510060046 13 147 11.3 24.1 0.00 0.00 0.00 72 1029.8
20260510054536 13 128 9.7 19.3 0.00 0.00 0.00 72 1029.7
20260510053035 14 171 9.7 19.3 0.00 0.00 0.00 71 1029.5
20260510051543 14 170 11.3 20.9 0.00 0.00 0.00 71 1029.5
20260510050036 14 151 9.7 19.3 0.00 0.00 0.00 72 1029.5
20260510044538 14 161 9.7 17.7 0.00 0.00 0.00 71 1029.4
20260510043047 15 98 11.3 19.3 0.00 0.00 0.00 72 1029.4
20260510041535 14 134 8.0 19.3 0.00 0.00 0.00 72 1029.4
20260510040036 14 153 8.0 17.7 0.00 0.00 0.00 73 1029.5
20260510034539 14 152 11.3 17.7 0.00 0.00 0.00 73 1029.5
20260510033030 14 104 8.0 17.7 0.00 0.00 0.00 74 1029.5
20260510031604 13 176 11.3 20.9 0.00 0.00 0.00 74 1029.6
20260510030038 13 155 6.4 22.5 0.00 0.00 0.00 75 1029.8
20260510024537 13 133 11.3 20.9 0.00 0.00 0.00 76 1029.9
20260510023045 13 150 9.7 20.9 0.00 0.00 0.00 77 1029.9
20260510021542 13 117 8.0 19.3 0.00 0.00 0.00 79 1030.1
20260510020035 12 156 11.3 22.5 0.00 0.00 0.00 79 1030.3
20260510014535 12 139 9.7 22.5 0.00 0.00 0.00 81 1030.4
20260510013037 12 148 14.5 20.9 0.00 0.00 0.00 82 1030.6
20260510012521 12 121 11.3 22.5 0.00 0.00 0.00 83 1030.6
20260510012019 12 118 12.9 22.5 0.00 0.00 0.00 84 1030.7
20260510011608 11 97 11.3 22.5 0.00 0.00 0.00 85 1030.7
20260510011020 11 113 11.3 22.5 0.00 0.00 0.00 86 1030.7
20260510010518 11 121 14.5 24.1 0.00 0.00 0.00 86 1030.7
20260510010042 11 132 12.9 25.7 0.00 0.00 0.00 87 1030.7
20260510005517 11 175 12.9 25.7 0.00 0.00 0.00 88 1030.8
20260510005017 11 127 14.5 25.7 0.00 0.00 0.00 89 1030.7
20260510004536 11 166 12.9 30.6 0.00 0.00 0.00 89 1030.7
20260510004019 11 155 16.1 30.6 0.00 0.00 0.00 89 1030.7
20260510003519 11 152 17.7 30.6 0.00 0.00 0.00 89 1030.7
20260510003031 11 134 14.5 27.4 0.00 0.00 0.00 89 1030.7
20260510002519 11 157 14.5 30.6 0.00 0.00 0.00 90 1030.7
20260510002022 11 156 17.7 30.6 0.00 0.00 0.00 91 1030.7
20260510001533 11 162 11.3 24.1 0.00 0.00 0.00 92 1030.6
20260510001020 10 119 14.5 24.1 0.00 0.00 0.00 92 1030.6
20260510000518 10 157 12.9 24.1 0.00 0.00 0.00 92 1030.6
20260510000035 10 107 12.9 25.7 0.00 0.00 0.00 92 1030.7
20260509235518 10 120 12.9 25.7 0.00 0.00 0.00 93 1030.7
20260509235016 10 143 16.1 29.0 0.00 0.00 0.00 93 1030.7
20260509234536 10 154 14.5 29.0 0.00 0.00 0.00 93 1030.7
20260509234017 10 137 14.5 27.4 0.00 0.00 0.00 94 1030.7
20260509233516 10 117 14.5 24.1 0.00 0.00 0.00 94 1030.7
20260509233035 10 149 14.5 30.6 0.00 0.00 0.00 94 1030.7
20260509232521 10 138 14.5 30.6 0.00 0.00 0.00 94 1030.6
20260509232019 9 125 12.9 22.5 0.00 0.00 0.00 94 1030.6
20260509231537 9 113 11.3 25.7 0.00 0.00 0.00 94 1030.6
20260509231020 9 144 12.9 25.7 0.00 0.00 0.00 94 1030.5
20260509230519 9 132 11.3 22.5 0.00 0.00 0.00 94 1030.5
20260509230037 9 124 8.0 27.4 0.00 0.00 0.00 94 1030.5
20260509225520 9 122 12.9 27.4 0.00 0.00 0.00 94 1030.4
20260509225019 9 153 12.9 32.2 0.00 0.00 0.00 94 1030.4
20260509224535 9 151 14.5 32.2 0.00 0.00 0.00 94 1030.4
20260509224019 9 122 16.1 30.6 0.00 0.00 0.00 94 1030.2
20260509223519 9 130 14.5 35.4 0.00 0.00 0.00 94 1030.2
20260509223033 9 146 16.1 35.4 0.00 0.00 0.00 94 1030.2
20260509222518 9 140 11.3 30.6 0.00 0.00 0.00 94 1030.3
20260509222019 9 157 19.3 32.2 0.00 0.00 0.00 94 1030.1
20260509221535 9 145 12.9 32.2 0.00 0.00 0.00 94 1030.1
20260509221019 9 163 9.7 24.1 0.00 0.00 0.00 94 1030.0
20260509220518 9 148 9.7 22.5 0.00 0.00 0.00 94 1030.1
20260509220037 9 134 12.9 22.5 0.00 0.00 0.00 94 1029.9
20260509215523 8 144 14.5 25.7 0.00 0.00 0.00 94 1029.9
20260509215020 8 157 14.5 27.4 0.00 0.00 0.00 94 1029.8
20260509214537 8 154 12.9 27.4 0.00 0.00 0.00 94 1029.8
20260509214019 8 129 12.9 27.4 0.00 0.00 0.00 94 1029.7
20260509213520 8 133 14.5 27.4 0.00 0.00 0.00 94 1029.7
20260509213042 8 159 11.3 29.0 0.00 0.00 0.00 94 1029.7
20260509212519 8 134 14.5 32.2 0.00 0.00 0.00 94 1029.6
20260509212019 8 153 14.5 32.2 0.00 0.00 0.00 94 1029.5
20260509211606 8 152 12.9 24.1 0.00 0.00 0.00 94 1029.5
20260509211019 8 136 12.9 24.1 0.00 0.00 0.00 94 1029.4
20260509210519 8 110 12.9 24.1 0.00 0.00 0.00 94 1029.3
20260509210037 8 157 11.3 24.1 0.00 0.00 0.00 94 1029.3
20260509205520 8 160 8.0 27.4 0.00 0.00 0.00 94 1029.2
20260509205019 8 120 9.7 27.4 0.00 0.00 0.00 94 1029.1
20260509204540 8 126 12.9 25.7 0.00 0.00 0.00 94 1029.2
20260509204020 8 154 12.9 22.5 0.00 0.00 0.00 94 1029.2
20260509203516 8 121 9.7 22.5 0.00 0.00 0.00 94 1029.1
20260509203041 8 149 8.0 24.1 0.00 0.00 0.00 94 1029.1
20260509202519 8 145 12.9 24.1 0.00 0.00 0.00 94 1029.1